Regional Weather Roundup
Issued by NWS Little Rock, AR

Home | Current Version | Previous Version | Graphics & Text | Print | Product List | Glossary On
Versions: 1 2 3 4 5 6 7 8 9 10 11 12 13 14 15 16 17 18 19 20 21 22 23 24 25 26 27 28 29 30 31
000
ASUS44 KLZK 170305
RWRLZK

WEATHER ROUNDUP FOR ARKANSAS
NATIONAL WEATHER SERVICE LITTLE ROCK AR
900 PM CST MON JAN 16 2017

NOTE: "FAIR" INDICATES FEW OR NO CLOUDS BELOW 12,000 FEET WITH NO
SIGNIFICANT WEATHER AND/OR OBSTRUCTIONS TO VISIBILITY.

ARZ001-003-010-029-170400-
NORTHWEST ARKANSAS

CITY           SKY/WX    TMP DP  RH WIND       PRES   REMARKS
FAYETTEVILLE   CLEAR     43  40  89 W7        30.01S
FORT SMITH     CLEAR     49  41  74 W6        30.02R
HARRISON       PTCLDY    51  44  77 W8        29.97R
BENTONVILLE    PTCLDY   N/A N/A N/A W6        30.01R
ROGERS         PTCLDY    43  37  79 W9        30.00S
SILOAM SPGS    CLEAR     43  36  75 W9        30.01S
HIGHFILL       PTCLDY    42  38  85 W7        30.00S
SPRINGDALE     CLEAR     45  39  81 W7        30.02R
$$

ARZ004-005-016-170400-
NORTH CENTRAL ARKANSAS

CITY           SKY/WX    TMP DP  RH WIND       PRES   REMARKS
BATESVILLE     CLOUDY    63  61  94 SW8       29.96R
FLIPPIN        CLEAR     52  48  87 W6        29.92R
MTN HOME       CLEAR     56  53  90 W5        29.93R
$$

ARZ040-041-170400-
WEST CENTRAL ARKANSAS

CITY           SKY/WX    TMP DP  RH WIND       PRES   REMARKS
MENA           CLEAR     52  50  93 CALM      30.03R
MOUNT IDA      PTCLDY    55  51  86 VRB3      29.99R
$$

ARZ009-017-025-026-028-170400-
NORTHEAST ARKANSAS

CITY           SKY/WX    TMP DP  RH WIND       PRES   REMARKS
CORNING        CLOUDY    61  61 100 SW9       29.93S
JONESBORO      CLOUDY    64  62  93 S8        29.95S
NEWPORT        CLOUDY    62  61  96 S14       29.94S
WALNUT RIDGE   MOCLDY    61  57  88 S7        29.94R
BLYTHEVILLE    HVY RAIN  64  62  93 S13       29.95F FOG
$$

ARZ022-023-033-042-044-170400-
CENTRAL ARKANSAS

CITY           SKY/WX    TMP DP  RH WIND       PRES   REMARKS
LITTLE ROCK    CLOUDY    62  61  96 SW7       29.98S
N LITTLE ROCK    N/A     61  60  96 W5        29.99S
JACKSONVILLE   CLEAR     63  63  99 SW6       29.97R
SEARCY         CLOUDY    64  64 100 SW6       29.98R
HOT SPRINGS    MOCLDY    58  58 100 NW3       30.01R FOG
RUSSELLVILLE   CLEAR     55  47  74 W17G24    29.98R
CLINTON        FAIR      59  59 100 SW6       29.95S
$$

ARZ036-170400-
EAST ARKANSAS

CITY           SKY/WX    TMP DP  RH WIND       PRES   REMARKS
WEST MEMPHIS   LGT RAIN  66  62  87 S21G28    29.94F
$$

ARZ050-053-066-070-073-170400-
SOUTHWEST ARKANSAS

CITY           SKY/WX    TMP DP  RH WIND       PRES   REMARKS
ARKADELPHIA    LGT RAIN  59  57  93 S5        30.02R
CAMDEN         HVY RAIN  59  55  88 NW8       30.02R
TEXARKANA      CLOUDY    60  60 100 W5        30.02R
EL DORADO      HVY RAIN  67  66  97 W10       30.01S FOG
DE QUEEN       MOCLDY    54  47  77 W5        30.03R
$$

ARZ056-057-069-170400-
SOUTHEAST ARKANSAS

CITY           SKY/WX    TMP DP  RH WIND       PRES   REMARKS
PINE BLUFF     LGT RAIN  66  64  93 SW7       30.01R
STUTTGART      CLOUDY    66  61  82 SW13      30.00R
MONTICELLO     LGT RAIN  67  65  93 SW5       30.03R

$$






USA.gov is the U.S. government's official web portal to all federal, state and local government web resources and services.